When you browse on this site, cookies collect data to enhance your experience and personalize the content and advertising you see.
Visit our Privacy Policy to learn more. By continuing to use the site, you agree to this use of cookies and data.
  • In Netherlands
  • List of Countries
  • For 7 days
  • Water Temperature
  • Satellite Maps
  • Weather Map
  • Weather Widgets
  • user-avatar
    Login

    Hourly Weather Canberra

    Today, 19 March, Tuesday

    Time Temperature Precipitation Wind Pressure Humidity
    00:00 +16°C° 0 mm 2 mps 708 mmHg 94%
    01:00 +16°C° 0 mm 2 mps 708 mmHg 94%
    02:00 +16°C° 0 mm 2 mps 708 mmHg 95%
    03:00 +16°C° 0 mm 2 mps 708 mmHg 95%
    04:00 +16°C° 0 mm 1 mps 707 mmHg 95%
    05:00 +18°C° 0 mm 1 mps 708 mmHg 93%
    06:00 +18°C° 0 mm 1 mps 708 mmHg 91%
    07:00 +18°C° 0 mm 1 mps 708 mmHg 90%
    08:00 +19°C° 0 mm 2 mps 709 mmHg 79%
    09:00 +23°C° 0 mm 2 mps 709 mmHg 69%
    10:00 +24°C° 0 mm 3 mps 709 mmHg 59%
    11:00 +25°C° 0.2 mm 3 mps 709 mmHg 56%
    12:00 +26°C° 0.2 mm 2 mps 709 mmHg 52%
    13:00 +27°C° 0.2 mm 2 mps 708 mmHg 48%
    14:00 +26°C° 0.9 mm 2 mps 708 mmHg 55%
    15:00 +25°C° 0.9 mm 2 mps 708 mmHg 61%
    16:00 +24°C° 0.9 mm 3 mps 707 mmHg 68%
    17:00 +23°C° 0.8 mm 2 mps 707 mmHg 75%
    18:00 +20°C° 0.8 mm 2 mps 708 mmHg 82%
    19:00 +19°C° 0.8 mm 2 mps 708 mmHg 89%
    20:00 +18°C° 0 mm 2 mps 708 mmHg 91%
    21:00 +19°C° 0 mm 1 mps 708 mmHg 93%
    22:00 +18°C° 0 mm 1 mps 708 mmHg 94%
    23:00 +18°C° 0 mm 1 mps 708 mmHg 94%

    Tomorrow, 20 March, Wednesday

    Time Temperature Precipitation Wind Pressure Humidity
    00:00 +18°C° 0 mm 1 mps 708 mmHg 95%
    01:00 +16°C° 0 mm 1 mps 708 mmHg 95%
    02:00 +16°C° 0 mm 1 mps 708 mmHg 95%
    03:00 +16°C° 0 mm 1 mps 708 mmHg 95%
    04:00 +16°C° 0 mm 1 mps 708 mmHg 95%
    05:00 +16°C° 0 mm 1 mps 708 mmHg 93%
    06:00 +16°C° 0 mm 1 mps 708 mmHg 92%
    07:00 +16°C° 0 mm 1 mps 708 mmHg 91%
    08:00 +20°C° 0 mm 1 mps 709 mmHg 81%
    09:00 +21°C° 0 mm 2 mps 709 mmHg 71%
    10:00 +24°C° 0 mm 2 mps 710 mmHg 61%
    11:00 +25°C° 0 mm 2 mps 709 mmHg 56%
    12:00 +27°C° 0 mm 2 mps 709 mmHg 51%
    13:00 +28°C° 0 mm 2 mps 709 mmHg 46%
    14:00 +28°C° 0.3 mm 2 mps 709 mmHg 48%
    15:00 +27°C° 0.3 mm 2 mps 708 mmHg 50%
    16:00 +27°C° 0.3 mm 2 mps 708 mmHg 52%
    17:00 +25°C° 0.5 mm 2 mps 708 mmHg 63%
    18:00 +23°C° 0.5 mm 2 mps 708 mmHg 74%
    19:00 +20°C° 0.5 mm 3 mps 708 mmHg 85%
    20:00 +19°C° 0 mm 2 mps 709 mmHg 89%
    21:00 +18°C° 0 mm 2 mps 709 mmHg 92%
    22:00 +19°C° 0 mm 1 mps 709 mmHg 95%
    23:00 +18°C° 0 mm 1 mps 709 mmHg 96%

    Day after tomorrow, 21 March, Thursday

    Time Temperature Precipitation Wind Pressure Humidity
    00:00 +18°C° 0 mm 1 mps 709 mmHg 96%
    01:00 +18°C° 0 mm 1 mps 709 mmHg 96%
    02:00 +18°C° 0 mm 1 mps 709 mmHg 96%
    03:00 +18°C° 0 mm 1 mps 709 mmHg 95%
    04:00 +16°C° 0 mm 1 mps 709 mmHg 95%
    05:00 +18°C° 0 mm 1 mps 709 mmHg 94%
    06:00 +18°C° 0 mm 1 mps 710 mmHg 93%
    07:00 +18°C° 0 mm 1 mps 710 mmHg 91%
    08:00 +20°C° 0 mm 1 mps 710 mmHg 81%
    09:00 +21°C° 0 mm 2 mps 711 mmHg 71%
    10:00 +25°C° 0 mm 2 mps 711 mmHg 61%
    11:00 +26°C° 0.1 mm 2 mps 711 mmHg 58%
    12:00 +26°C° 0.1 mm 2 mps 711 mmHg 55%
    13:00 +27°C° 0.1 mm 2 mps 710 mmHg 52%
    14:00 +26°C° 1.2 mm 2 mps 710 mmHg 56%
    15:00 +26°C° 1.2 mm 2 mps 710 mmHg 61%
    16:00 +25°C° 1.2 mm 2 mps 709 mmHg 66%
    17:00 +23°C° 1.4 mm 2 mps 709 mmHg 73%
    18:00 +21°C° 1.4 mm 2 mps 710 mmHg 81%
    19:00 +19°C° 1.4 mm 2 mps 710 mmHg 89%
    20:00 +18°C° 0.2 mm 2 mps 710 mmHg 91%
    21:00 +18°C° 0.2 mm 2 mps 711 mmHg 93%
    22:00 +18°C° 0.2 mm 2 mps 711 mmHg 95%
    23:00 +18°C° 0 mm 2 mps 711 mmHg 94%

    22 March, Friday

    Time Temperature Precipitation Wind Pressure Humidity
    00:00 +18°C° 0 mm 2 mps 711 mmHg 93%
    01:00 +18°C° 0 mm 2 mps 711 mmHg 92%
    02:00 +18°C° 0 mm 2 mps 710 mmHg 92%
    03:00 +19°C° 0 mm 1 mps 710 mmHg 92%
    04:00 +19°C° 0 mm 1 mps 710 mmHg 91%
    05:00 +19°C° 0 mm 1 mps 711 mmHg 91%
    06:00 +19°C° 0 mm 1 mps 711 mmHg 91%
    07:00 +19°C° 0 mm 1 mps 711 mmHg 90%
    08:00 +20°C° 0 mm 1 mps 711 mmHg 86%
    09:00 +21°C° 0 mm 1 mps 711 mmHg 81%
    10:00 +22°C° 0 mm 1 mps 712 mmHg 77%
    11:00 +23°C° 0 mm 1 mps 711 mmHg 69%
    12:00 +25°C° 0 mm 1 mps 711 mmHg 60%
    13:00 +27°C° 0 mm 1 mps 711 mmHg 52%
    14:00 +27°C° 0 mm 1 mps 710 mmHg 51%
    15:00 +27°C° 0 mm 1 mps 710 mmHg 50%
    16:00 +27°C° 0 mm 1 mps 709 mmHg 49%
    17:00 +25°C° 0.1 mm 2 mps 709 mmHg 60%
    18:00 +23°C° 0.1 mm 2 mps 709 mmHg 71%
    19:00 +20°C° 0.1 mm 2 mps 709 mmHg 82%
    20:00 +19°C° 0 mm 2 mps 709 mmHg 86%
    21:00 +19°C° 0 mm 2 mps 710 mmHg 91%
    22:00 +19°C° 0 mm 1 mps 710 mmHg 95%
    23:00 +19°C° 0 mm 1 mps 709 mmHg 96%

    23 March, Saturday

    Time Temperature Precipitation Wind Pressure Humidity
    00:00 +19°C° 0 mm 1 mps 709 mmHg 96%
    01:00 +19°C° 0 mm 1 mps 708 mmHg 96%
    02:00 +18°C° 0 mm 1 mps 708 mmHg 96%
    03:00 +18°C° 0 mm 1 mps 708 mmHg 95%
    04:00 +18°C° 0 mm 1 mps 707 mmHg 95%
    05:00 +18°C° 0 mm 1 mps 708 mmHg 94%
    06:00 +19°C° 0 mm 1 mps 708 mmHg 92%
    07:00 +17°C° 0 mm 0 mps 708 mmHg 91%
    08:00 +20°C° 0.1 mm 1 mps 708 mmHg 85%
    09:00 +21°C° 0.1 mm 1 mps 708 mmHg 80%
    10:00 +22°C° 0.1 mm 1 mps 708 mmHg 74%
    11:00 +22°C° 0.5 mm 1 mps 708 mmHg 73%
    12:00 +23°C° 0.5 mm 2 mps 707 mmHg 72%
    13:00 +23°C° 0.5 mm 2 mps 706 mmHg 70%
    14:00 +25°C° 0.1 mm 2 mps 706 mmHg 63%
    15:00 +26°C° 0.1 mm 3 mps 706 mmHg 55%
    16:00 +28°C° 0.1 mm 3 mps 705 mmHg 47%
    17:00 +26°C° 0 mm 3 mps 705 mmHg 53%
    18:00 +24°C° 0 mm 2 mps 705 mmHg 58%
    19:00 +23°C° 0 mm 2 mps 705 mmHg 64%
    20:00 +21°C° 0 mm 2 mps 705 mmHg 67%
    21:00 +22°C° 0 mm 1 mps 705 mmHg 70%
    22:00 +21°C° 0 mm 1 mps 705 mmHg 72%
    23:00 +20°C° 0 mm 1 mps 705 mmHg 75%

    24 March, Sunday

    Time Temperature Precipitation Wind Pressure Humidity
    00:00 +20°C° 0 mm 1 mps 704 mmHg 78%
    01:00 +19°C° 0 mm 1 mps 704 mmHg 81%
    02:00 +18°C° 0 mm 1 mps 704 mmHg 79%
    03:00 +18°C° 0 mm 1 mps 704 mmHg 78%
    04:00 +16°C° 0 mm 0 mps 704 mmHg 76%
    05:00 +16°C° 0 mm 0 mps 705 mmHg 73%
    06:00 +18°C° 0 mm 1 mps 706 mmHg 70%
    07:00 +19°C° 0 mm 1 mps 706 mmHg 67%
    08:00 +21°C° 0 mm 1 mps 707 mmHg 59%
    09:00 +23°C° 0 mm 1 mps 707 mmHg 51%
    10:00 +25°C° 0 mm 2 mps 707 mmHg 43%
    11:00 +27°C° 0 mm 3 mps 707 mmHg 39%
    12:00 +28°C° 0 mm 3 mps 707 mmHg 34%
    13:00 +29°C° 0 mm 4 mps 707 mmHg 30%
    14:00 +29°C° 0 mm 5 mps 707 mmHg 31%
    15:00 +29°C° 0 mm 5 mps 707 mmHg 32%
    16:00 +29°C° 0 mm 5 mps 707 mmHg 33%
    17:00 +27°C° 0 mm 5 mps 707 mmHg 38%
    18:00 +26°C° 0 mm 5 mps 708 mmHg 42%
    19:00 +23°C° 0 mm 5 mps 708 mmHg 47%
    20:00 +22°C° 0 mm 4 mps 708 mmHg 54%
    21:00 +21°C° 0 mm 4 mps 708 mmHg 60%
    22:00 +21°C° 0 mm 4 mps 708 mmHg 66%
    23:00 +20°C° 0.1 mm 5 mps 707 mmHg 68%
    Show more